Weather Roundup
Issued by NWS

Home | Current Version | Previous Version | Text Only | Print | Product List | Glossary On
Versions: 1 2 3 4 5 6 7 8 9 10 11 12 13 14 15 16 17 18 19 20 21 22 23 24 25 26 27 28 29 30 31 32 33 34 35 36 37 38 39 40 41 42 43 44 45 46 47 48 49 50
000
NZUS93 KARX 221259
HRRWXR

CURRENT HOURLY OBSERVATIONS ACROSS
MUCH OF THE UPPER MISSISSIPPI VALLEY
NATIONAL WEATHER SERVICE LA CROSSE WI
800 AM CDT SUN OCT 22 2017


...SOUTHEAST MINNESOTA...


CITY           SKY/WX    TMP DP  RH WIND       PRES   REMARKS
ROCHESTER      CLOUDY    47  43  86 W7        29.98R
ROCHESTER/MAYO FAIR      49  41  73 W6        29.97R
WINONA         CLOUDY    50  45  81 CALM      29.96S
AUSTIN         PTCLDY    48  41  76 W9        29.98R
ALBERT LEA     NOT AVBL
DODGE CENTER   CLOUDY    46  41  81 W9        29.97S
PRESTON        CLOUDY    47  43  84 NW6       29.98R
OWATONNA       CLOUDY    46  43  87 SW5       29.99R
FARIBAULT      CLOUDY    46  43  87 SW3       29.99R
$$

...ELSEWHERE IN MINNESOTA...


CITY           SKY/WX    TMP DP  RH WIND       PRES   REMARKS
MINNEAPOLIS    CLOUDY    48  43  82 W8        29.96R
INTNL FALLS    CLOUDY    44  39  82 SW8       29.70R
DULUTH         CLOUDY    45  42  89 W17G24    29.83R
RED WING       MOCLDY    50  41  71 W3        29.95R
REDWOOD FALLS  PTCLDY    43  35  73 SW7       29.98R
MANKATO        CLOUDY    44  40  85 W7        30.00R
WORTHINGTON    NOT AVBL
FAIRMONT       CLOUDY    44  39  82 W8        30.02R
$$

...SOUTHWEST WISCONSIN...


CITY           SKY/WX    TMP DP  RH WIND       PRES   REMARKS
LA CROSSE      CLOUDY    53  48  83 W6        29.95R
PRAIRIE DU CHI CLOUDY    51  46  82 CALM      29.95R
BOSCOBEL       CLOUDY    51  48  89 W5        29.95R
LONE ROCK      NOT AVBL
PLATTEVILLE    MOCLDY    52  52  99 NW10      29.94R
FORT MC COY    CLOUDY    49  48  96 W5        29.94S
MAUSTON-NEW LI RAIN     N/A N/A N/A NW9       29.92R
VIROQUA        CLOUDY    49  48  97 NW7       29.94S
WIS DELLS      RAIN      53  51  93 W7        29.92R
$$

...ELSEWHERE IN WISCONSIN...


CITY           SKY/WX    TMP DP  RH WIND       PRES   REMARKS
MILWAUKEE      CLOUDY    62  57  83 S5        29.93R
MADISON        LGT RAIN  62  60  93 W5        29.89R
GREEN BAY      CLOUDY    63  58  83 S10       29.87R
EAU CLAIRE     NOT AVBL
BLACK RVR FLS  LGT RAIN  51  50  97 W5        29.93F
MEDFORD        LGT RAIN  48  46  92 W7        29.91R
WAUSAU         LGT RAIN  50  46  86 W14       29.90R
WIS RAPIDS     LGT RAIN  53  51  93 NW8       29.93R
MARSHFIELD     CLOUDY    50  47  89 W8        29.92R
RICE LAKE      CLOUDY    48  42  79 SW6       29.93R
$$

...NORTHEAST IOWA...


CITY           SKY/WX    TMP DP  RH WIND       PRES   REMARKS
WATERLOO       CLOUDY    48  46  93 W6        29.98R
DUBUQUE        CLOUDY    52  49  89 N15       29.94S
DECORAH        CLOUDY    48  46  93 VRB5      29.96R
MASON CITY     CLOUDY    47  42  83 W8        30.01R
CHARLES CITY   CLOUDY    48  46  93 W6        29.99R
OELWEIN          N/A     50  50 100 NW8       29.97R
$$

...ELSEWHERE IN IOWA...


CITY           SKY/WX    TMP DP  RH WIND       PRES   REMARKS
DES MOINES     CLOUDY    50  45  83 NW6       30.01S
IOWA CITY      LGT RAIN  53  49  86 NW8       30.00R
FORT DODGE     CLOUDY    46  41  82 CALM      30.03R
MARSHALLTOWN   CLOUDY    49  46  90 NW8       29.99R
CEDAR RAPIDS   LGT RAIN  50  48  93 NW8       29.97R
$$

...NORTHERN ILLINOIS...


CITY           SKY/WX    TMP DP  RH WIND       PRES   REMARKS
CHICAGO-OHARE  CLOUDY    66  56  70 S14       29.94R
CHICAGO-MIDWAY MOCLDY    66  56  70 S14G23    29.95R
MOLINE         CLOUDY    55  52  89 NW7       29.92R
ROCKFORD       LGT RAIN  62  60  93 S12       29.91F FOG
PEORIA         LGT RAIN  65  64  97 SW7       29.91R FOG
$$

NOTE: "FAIR" INDICATES FEW OR NO CLOUDS BELOW 12,000 FEET WITH NO
SIGNIFICANT WEATHER AND/OR OBSTRUCTIONS TO VISIBILITY. WIND
SPEEDS ARE IN MILES-PER-HOUR.




USA.gov is the U.S. government's official web portal to all federal, state and local government web resources and services.